Zurück zum Katalog

CZ-3C DEB

AktivGTO
NORAD 40831·DEBRIS·🇨🇳 China

Gestartet Oct 31, 2010 von Xichang Satellite Launch Center

Loading…

TLE

VeraltetSource: Space-Track

Epoche: Sep 4, 2026, 19:01 UTC

1 40831U 10057AY  26247.79294595  .00000064  00000-0  29525-3 0  9996
2 40831  20.1285  95.9624 7185501 163.7677 244.6463  2.20873098  2285

Verfolge CZ-3C DEB in Echtzeit mit AllMySat

Download on the App Store